This is the latest recevied weather packets stored in our database for station/object VE8SKI. If no packets are shown the sender has not sent any weather packets the latest 10 day(s).
| Time | Temp. | Humidity | Pressure | Rain* | Wind** | Luminosity | Snow |
|---|---|---|---|---|---|---|---|
| 1777781811 | 1.11° C | 78% | 1009.2 hPa | 0 mm | 2.68 m/s, 97° | - | - |
| 1777781528 | 1.11° C | 79% | 1009.2 hPa | 0 mm | 1.79 m/s, 66° | - | - |
| 1777781212 | 1.67° C | 79% | 1009.1 hPa | 0 mm | 2.68 m/s, 49° | - | - |
| 1777780912 | 1.67° C | 79% | 1009.1 hPa | 0 mm | 2.24 m/s, 84° | - | - |
| 1777780613 | 1.67° C | 78% | 1009 hPa | 0 mm | 2.24 m/s, 94° | - | - |
| 1777780310 | 1.67° C | 78% | 1008.9 hPa | 0 mm | 3.13 m/s, 79° | - | - |
| 1777780010 | 1.67° C | 78% | 1008.8 hPa | 0 mm | 1.79 m/s, 111° | - | - |
| 1777779711 | 1.67° C | 78% | 1008.7 hPa | 0 mm | 2.68 m/s, 94° | - | - |
| 1777779411 | 1.67° C | 79% | 1008.7 hPa | 0 mm | 1.79 m/s, 152° | - | - |
| 1777779111 | 1.67° C | 78% | 1008.6 hPa | 0 mm | 2.68 m/s, 75° | - | - |
| 1777778812 | 1.67° C | 78% | 1008.5 hPa | 0 mm | 1.34 m/s, 91° | - | - |
| 1777778509 | 2.22° C | 78% | 1008.4 hPa | 0 mm | 1.34 m/s, 76° | - | - |
| 1777778210 | 2.22° C | 77% | 1008.3 hPa | 0 mm | 2.68 m/s, 60° | - | - |
| 1777777910 | 2.22° C | 77% | 1008.3 hPa | 0 mm | 1.79 m/s, 87° | - | - |
| 1777777610 | 2.22° C | 77% | 1008.1 hPa | 0 mm | 1.34 m/s, 60° | - | - |
| 1777777311 | 2.22° C | 76% | 1008 hPa | 0 mm | 3.13 m/s, 124° | - | - |
| 1777777011 | 2.22° C | 75% | 1008 hPa | 0 mm | 1.79 m/s, 111° | - | - |
| 1777776709 | 2.22° C | 75% | 1008 hPa | 0 mm | 1.79 m/s, 79° | - | - |
| 1777776409 | 2.22° C | 75% | 1008 hPa | 0 mm | 2.24 m/s, 90° | - | - |
| 1777776109 | 2.22° C | 75% | 1007.9 hPa | 0 mm | 0 m/s | - | - |
| 1777775810 | 2.22° C | 74% | 1007.8 hPa | 0 mm | 0 m/s | - | - |
| 1777775510 | 2.22° C | 74% | 1007.8 hPa | 0 mm | 1.34 m/s, 80° | - | - |
| 1777775211 | 2.22° C | 74% | 1007.9 hPa | 0 mm | 2.24 m/s, 124° | - | - |
| 1777774908 | 2.22° C | 74% | 1008.1 hPa | 0 mm | 2.24 m/s, 128° | - | - |
| 1777774609 | 2.78° C | 74% | 1008.1 hPa | 0 mm | 2.24 m/s, 75° | - | - |
* Rain latest hour (hover to see other rain measurements)
** Current wind speed in m/s (hover to see current wind gust speed)